FENGYUN 1C DEB, 38801

Orbit data source: Space-Track

FENGYUN 1C DEB, 38801 is space debris in SSO originally from a launch on Mon, 10 May 1999 UTC launched from the Taiyaun Space Center, China (TSC). Fengyun 1C debris stems from the Chinese weather satellite Fengyun-1C, which was intentionally destroyed by a Chinese anti-satellite missile in 2007. This event dramatically increased the amount of space debris, with thousands of trackable fragments posing hazards to satellites and human spaceflight. The Fengyun 1C debris cloud has become a focal point in discussions about space sustainability and the need for international regulations to prevent the creation of new debris.

Loading next visibility...
Identifier
38801, 1999-025EUR
Orbit
SSO
Country
Flag of CNCN / PRC
Related business
Manufacturer
Unknown
Mission
Spacecraft
Bus & Motor
Unknown
Mass
Unknown
Launch date (UTC)
1999-05-10 (27 years ago)
Launch vehicle
Unknown
Launch site
Taiyaun Space Center, China (TSC)
Object type
Payload
Rocket body
Debris
Shape & HBR
Unknown shape, 0.1 m
Radar Cross Section
Small (<0.1 m²)

Expand to show TLE details & history
Last TLE update: 4 days ago

TLE from 4 days ago
0 FENGYUN 1C DEB
1 38801U 99025EUR 26118.40513376  .00001323  00000-0  31319-3 0  9991
2 38801  98.3501 167.9801 0343486 309.9026  61.5554 14.25574518663077
Epoch: 2026-04-28T09:43Z
TLE epoch observation values (Epoch: 2026-04-28T09:43:23.556Z)
Latitude
14.80033°
Longitude
163.54048°
Altitude
697.934 km
Speed
7.566 km/s
True Right ascension
11h 03m 04s
True Declination
14° 42' 54"
Sunlit
Object was in full shadow at epoch
Visualization orbit readout
Latitude
Unknown
Longitude
Unknown
Altitude
Unknown
Speed
Unknown
Apparent Right ascension
Unknown
Apparent Declination
Unknown
Sunlit
N/A
Visualization observer readout
Local Sidereal Time
06:50:48
Azimuth
Unknown
Elevation
Unknown
Doppler factor
Unknown
Orbital elements
Apogee altitude
1,050.377 km
Perigee altitude
557.005 km
Semi-major axis
7,181.828 km
Eccentricity
0.03435
Inclination
98.3501°
RAAN
167.9801°
Arg. of periapsis
309.9026°
True anomaly
65.08624°
Mean anomaly
61.5554°
Eccentric anomaly
63.31379°
Mean motion
3.56608 °/min
Orbital period
100.95 mins
BSTAR
0.00031319
Loading maneuver chart data...
Computing Atmospheric mass density...
Loading historical data...
Loading historical data...
Loading historical data...
Loading historical data...
Loading historical data...
Loading historical data...
Loading historical data...

Documentation

Showing up to 5 results
|